Weather History for Crescent City, CA

Change the Weather History Date:

Friday, December 21, 2012

  Actual Average Record
Temperature  
Mean Temperature 49 °F 48 °F  
Max Temperature 51 °F 54 °F 68 °F (1977)
Min Temperature 46 °F 41 °F 19 °F (1990)
Degree Days  
Heating Degree Days 16 17  
Month to date heating degree days 359 369  
Since 1 July heating degree days 1858 1986  
Cooling Degree Days 0 0  
Month to date cooling degree days 0 0  
Year to date cooling degree days 0 0  
Moisture  
Dew Point 43 °F    
Average Humidity 79    
Maximum Humidity 86    
Minimum Humidity 71    
Precipitation  
Precipitation 0.47 in 0.42 in 4.21 in (1981)
Month to date precipitation 9.80 7.21  
Year to date precipitation 72.79 59.97  
Since 1 July precipitation 29.41 23.04  
Snow  
Snow 0.00 in - - ()
Month to date snowfall 0.0  
Since 1 July snowfall 0.0  
Snow Depth 0.00 in    
Sea Level Pressure  
Sea Level Pressure 29.73 in    
Wind  
Wind Speed 19 mph (SE)    
Max Wind Speed 35 mph    
Max Gust Speed 47 mph    
Visibility 9 miles    
Events Rain    
T = Trace of Precipitation, MM = Missing Value Source: NWS Daily Summary

Daily Weather History Graph

Daily Weather History Graph

Search for Another Location

Airport:

Trip Planner

Search our weather history database for the weather conditions in past years. The results will help you decide how hot, cold, wet, or windy it might be!

Date:

Astronomy

Dec. 21, 2012 Rise Set
Actual Time 7:41 AM PST 4:49 PM PST
Civil Twilight 7:09 AM PST 5:21 PM PST
Nautical Twilight 6:34 AM PST 5:56 PM PST
Astronomical Twilight 6:00 AM PST 6:30 PM PST
Moon 12:42 PM PST 1:30 AM PST
Length of Visible Light 10h 11m
Length of Day
9h 08m
Waxing Gibbous, 66% of the Moon is Illuminated
Dec 21
Waxing Gibbous
Dec 28
Full
Jan 4
Last Quarter
Jan 11
New
Jan 18
First Quarter

Hourly Weather History & Observations

Time (PST) Temp. Windchill Dew Point Humidity Pressure Visibility Wind Dir Wind Speed Gust Speed Precip Events Conditions
12:56 AM 46.9 °F - 43.0 °F 86% 29.78 in 8.0 mi SSE 17.3 mph 26.5 mph 0.05 in Rain Light Rain
1:56 AM 48.0 °F - 44.1 °F 86% 29.77 in 10.0 mi SE 19.6 mph 25.3 mph 0.00 in Rain Light Rain
2:56 AM 48.0 °F - 44.1 °F 86% 29.77 in 10.0 mi SSE 19.6 mph 29.9 mph 0.05 in Rain Light Rain
3:56 AM 48.0 °F - 44.1 °F 86% 29.78 in 5.0 mi SE 21.9 mph 29.9 mph 0.06 in Rain Rain
4:41 AM 46.4 °F 38.1 °F 42.8 °F 87% 29.77 in 6.0 mi SSE 24.2 mph 33.4 mph 0.10 in Rain Light Rain
4:51 AM 46.4 °F 38.7 °F 42.8 °F 87% 29.77 in 8.0 mi SSE 20.7 mph 35.7 mph 0.11 in Rain Light Rain
4:56 AM 46.9 °F - 43.0 °F 86% 29.78 in 10.0 mi SSE 20.7 mph 29.9 mph 0.11 in Rain Light Rain
5:03 AM 48.2 °F - 42.8 °F 82% 29.77 in 10.0 mi SSE 17.3 mph 27.6 mph 0.00 in Rain Light Rain
5:16 AM 46.4 °F 39.2 °F 42.8 °F 87% 29.78 in 10.0 mi SSE 18.4 mph 28.8 mph 0.00 in Rain Light Rain
5:32 AM 46.4 °F 39.2 °F 42.8 °F 87% 29.77 in 10.0 mi SSE 18.4 mph 26.5 mph 0.01 in Rain Light Rain
5:40 AM 46.4 °F 39.0 °F 42.8 °F 87% 29.77 in 10.0 mi SSE 19.6 mph 27.6 mph 0.01 in Rain Light Rain
5:56 AM 46.9 °F - 43.0 °F 86% 29.77 in 10.0 mi SE 18.4 mph 27.6 mph 0.01 in Rain Light Rain
6:56 AM 46.9 °F - 43.0 °F 86% 29.78 in 10.0 mi SE 8.1 mph 18.4 mph 0.01 in Rain Light Rain
7:10 AM 46.4 °F 41.9 °F 42.8 °F 87% 29.77 in 10.0 mi SE 9.2 mph 17.3 mph 0.00 in   Overcast
7:26 AM 46.4 °F 40.7 °F 42.8 °F 87% 29.77 in 10.0 mi SE 12.7 mph - 0.00 in Rain Light Rain
7:56 AM 46.9 °F - 42.1 °F 83% 29.77 in 10.0 mi ESE 9.2 mph - 0.00 in   Mostly Cloudy
8:56 AM 48.0 °F - 42.1 °F 80% 29.78 in 10.0 mi SE 13.8 mph 21.9 mph 0.01 in Rain Light Rain
9:56 AM 48.9 °F - 42.1 °F 77% 29.75 in 10.0 mi SE 13.8 mph - 0.00 in   Mostly Cloudy
10:56 AM 50.0 °F - 42.1 °F 74% 29.75 in 10.0 mi SSE 17.3 mph - 0.00 in Rain Light Rain
11:56 AM 46.9 °F - 41.0 °F 80% 29.74 in 8.0 mi SSE 19.6 mph 26.5 mph 0.02 in Rain Light Rain
12:56 PM 46.9 °F - 43.0 °F 86% 29.73 in 10.0 mi SSE 20.7 mph 26.5 mph 0.08 in   Overcast
1:56 PM 48.0 °F - 43.0 °F 83% 29.72 in 10.0 mi SE 17.3 mph 24.2 mph 0.02 in Rain Light Rain
2:56 PM 48.0 °F - 42.1 °F 80% 29.71 in 9.0 mi SSE 17.3 mph 25.3 mph 0.01 in Rain Light Rain
3:56 PM 48.9 °F - 43.0 °F 80% 29.71 in 5.0 mi South 25.3 mph 32.2 mph 0.04 in Rain Light Rain
4:03 PM 48.2 °F - 44.6 °F 87% 29.70 in 9.0 mi South 21.9 mph 32.2 mph 0.00 in Rain Light Rain
4:56 PM 46.9 °F - 42.1 °F 83% 29.71 in 10.0 mi SE 18.4 mph 26.5 mph 0.00 in Rain Light Rain
5:56 PM 48.0 °F - 42.1 °F 80% 29.70 in 10.0 mi SE 17.3 mph 26.5 mph 0.00 in   Scattered Clouds
6:56 PM 48.9 °F - 42.1 °F 77% 29.69 in 10.0 mi SE 19.6 mph - N/A   Mostly Cloudy
7:56 PM 50.0 °F - 41.0 °F 71% 29.66 in 10.0 mi SE 20.7 mph 32.2 mph N/A   Overcast
8:56 PM 48.9 °F - 42.1 °F 77% 29.66 in 10.0 mi SE 26.5 mph 34.5 mph N/A   Mostly Cloudy
9:56 PM 48.9 °F - 41.0 °F 74% 29.65 in 10.0 mi SE 24.2 mph 33.4 mph 0.00 in Rain Light Rain
10:56 PM 48.9 °F - 41.0 °F 74% 29.61 in 10.0 mi SE 26.5 mph 33.4 mph 0.00 in Rain Light Rain
11:56 PM 48.0 °F - 41.0 °F 77% 29.60 in 10.0 mi SE 29.9 mph 47.2 mph 0.00 in   Overcast